www.pogodaiklimat.ru

Погода и климат >> Архив погоды >> Россия >> Якутия >> Тикси


АРХИВ ПОГОДЫ в Тикси

Время (UTC), дата Ветер
(напр.,м/с)
 
Видим.   Явления Облачность Т
(С)
Тd
(С)
f
(%)
Тe
(С)
Тes
(С)
Комфортность P
(гПа)
Po
(гПа)
Тmin
(С)
Tmax
(С)
R
(мм)
R24
(мм)
S
(см)
09 12.02 ЮЗ 9-13
{15}
20 км сильный позёмок 10/0
[Ac trans Ci fib]
-30.5 -32.7 81 -47 -47 опасность
обморожения
1016.1 1015.1
12 12.02 ЮЗ 8-10
{12}
20 км 10/0
[Ac trans Ci fib]
-30.8 -33.0 81 -46 -46 опасность
обморожения
1016.1 1015.1 -28.5 0.0
15 12.02 ЮЗ 6
{11}
20 км позёмок 10/0
[Ac trans Ci fib]
-30.8 -33.0 81 -45 -45 опасность
обморожения
1015.7 1014.7
18 12.02 ЮЗ 6
{11}
20 км позёмок 10/0
[Ac trans Ci fib]
-31.5 -33.3 84 -46 -46 опасность
обморожения
1015.3 1014.3
21 12.02 Ю 6
{11}
20 км позёмок 10/0
[Ac trans Ci fib]
-31.0 -32.6 86 -45 -45 опасность
обморожения
1014.8 1013.8
00 13.02 ЮЗ 6
{11}
20 км позёмок 8/0
[Ac trans Ci fib]
-30.9 -32.9 82 -45 -45 опасность
обморожения
1014.1 1013.1 -31.8 4
03 13.02 Ю 5
{10}
20 км позёмок 3/0
[Ci fib]
-30.3 -32.7 79 -43 -43 опасность
обморожения
1013.8 1012.8
06 13.02 Ю 5 20 км позёмок 3/0
[Ci fib]
-30.5 -32.8 80 -43 -43 опасность
обморожения
1012.9 1011.9
09 13.02 Ю 6
{11}
20 км позёмок 6/0
[Ac trans Ci fib]
-29.2 -31.6 80 -43 -43 опасность
обморожения
1012.5 1011.5
12 13.02 Ю 9-12
{12}
20 км сильный позёмок 4/0
[Ci fib]
-27.4 -28.8 88 -43 -43 опасность
обморожения
1011.1 1010.1 -27.0
15 13.02 ЮЗ 11-15
{18}
2000 м метель 5/0
[Ci fib]
-27.9 -28.9 91 -45 -45 опасность
обморожения
1010.6 1009.6
18 13.02 ЮЗ 14-18
{19}
1000 м слаб. снег {метель} 10/0
[Ac trans Ci fib]
-27.8 -28.8 91 -46 -46 опасность
обморожения
1008.2 1007.2
21 13.02 ЮЗ 17-21
{21}
1000 м слаб. снег {метель} 10/0
[Ac trans Cs]
-27.5 -28.4 92 -47 -47 опасность
обморожения
1007.5 1006.5
00 14.02 ЮЗ 17-21
{21}
500 м сильная метель 10/0
[Ac trans Ci fib]
-26.7 -27.6 92 -46 -46 опасность
обморожения
1006.6 1005.7 -28.3 0.7 3
03 14.02 ЮЗ 18-21
{23}
500 м сильная метель 10/0
[Ac trans Ci fib]
-26.6 -27.8 90 -46 -46 опасность
обморожения
1005.6 1004.7
06 14.02 ЮЗ 16-20
{22}
500 м сильная метель 10/0
[Ac trans Ci fib]
-26.5 -27.4 92 -45 -45 опасность
обморожения
1004.6 1003.7
09 14.02 Ю 18-21
{23}
500 м сильная метель 10/0
[Ac trans Ci fib]
-26.0 -26.9 92 -45 -45 опасность
обморожения
1003.4 1002.5
12 14.02 ЮЗ 17-21
{24}
500 м сильная метель 10/0
[Ac trans Ci fib]
-25.0 -25.9 92 -44 -44 опасность
обморожения
1001.9 1001.0 -24.8
15 14.02 ЮЗ 19-22
{24}
500 м сильная метель 10/0
[Ac trans Ci fib]
-24.0 -24.7 94 -43 -43 опасность
обморожения
998.5 997.6
18 14.02 Ю 17-20
{23}
500 м сильная метель 10/0
[Ac trans Ci fib]
-23.5 -24.3 93 -41 -41 опасность
обморожения
998.2 997.3
21 14.02 Ю 16-20
{20}
500 м сильная метель 10/0
[Ac trans Ci fib]
-23.4 -24.5 91 -41 -41 опасность
обморожения
997.4 996.5
00 15.02 ЮЗ 7-11
{20}
20 км позёмок 10/0
[Ac trans Cs]
-23.6 -24.8 90 -36 -36 опасность
обморожения
997.1 996.2 -25.1 4
03 15.02 ЮЗ 9-12
{13}
4000 м слаб. снег {метель} 10/3 1000 м
[Sc Ac und]
-22.6 -23.8 90 -36 -36 опасность
обморожения
996.0 995.1
06 15.02 ЮЗ 15-18
{18}
2000 м слаб. снег {метель} 10/4 1000 м
[Sc Ac und]
-21.8 -23.0 90 -38 -38 опасность
обморожения
995.2 994.3
09 15.02 ЮЗ 12-16
{18}
2000 м слаб. снег {метель} 10/6 1000 м
[Sc Ac und]
-21.4 -22.2 93 -37 -37 опасность
обморожения
994.8 993.9
12 15.02 ЮЗ 11-15
{16}
2000 м метель {снег} 10/6 1000 м
[Sc Ac und]
-20.5 -22.0 88 -35 -35 опасность
обморожения
994.3 993.4 -20.5 2
15 15.02 ЮЗ 9-12
{17}
4000 м слаб. снег {метель} 10/0
[Ac und]
-19.6 -20.2 95 -33 -33 опасность
обморожения
992.0 991.1
18 15.02 ЮЗ 11-16
{18}
1000 м слаб. снег {метель} 10/0
[Ac und]
-18.6 -19.3 94 -32 -32 опасность
обморожения
991.7 990.8
21 15.02 З 9-11
{16}
4000 м слаб. снег {метель} 10/4 1000 м
[Sc Ac trans Ci fib]
-18.4 -20.0 87 -31 -31 опасность
обморожения
991.8 990.9
00 16.02 З 5
{12}
20 км снежные кристаллы {метель} 10/4 1000 м
[Sc Ac und Cs]
-18.8 -21.3 81 -29 -29 тепло 992.1 991.2 -20.7 0.5 4
03 16.02 З 4 20 км снежные кристаллы {метель} 10/6 600 м
[Frnb Ac As]
-18.4 -20.2 86 -27 -27 тепло 993.0 992.1
06 16.02 З 6 20 км позёмок {снег} 10/5 600 м
[Sc Ac As]
-19.9 -21.8 85 -31 -31 опасность
обморожения
994.4 993.5
09 16.02 З 7
{11}
20 км снежные кристаллы {метель} 10/10 600 м
[Sc]
-20.9 -23.3 81 -33 -33 опасность
обморожения
996.6 995.7
12 16.02 З 5
{14}
20 км снежные кристаллы {метель} 10/10 1000 м
[Sc]
-25.1 -27.7 79 -36 -36 опасность
обморожения
999.4 998.5 -18.4 0.0
15 16.02 З 7
{10}
20 км снежные кристаллы {метель} 10/10 1000 м
[Sc]
-25.7 -28.2 79 -39 -39 опасность
обморожения
1001.1 1000.2
18 16.02 З 6
{11}
20 км позёмок {снег} 10/3 1500 м
[Sc Ac trans Ci fib]
-24.5 -27.7 75 -37 -37 опасность
обморожения
1001.5 1000.6
21 16.02 ЮЗ 9-11
{13}
20 км позёмок 10/0
[Ac trans Ci fib]
-25.3 -27.4 83 -40 -40 опасность
обморожения
1002.0 1001.1
00 17.02 Ю 9-11
{16}
20 км позёмок 10/0
[Ac As]
-24.0 -26.2 82 -38 -38 опасность
обморожения
1002.2 1001.3 -25.9 0.0 2
03 17.02 ЮЗ 10-13
{14}
10 км снежные кристаллы {метель} 10/3 1000 м
[Sc Ac As]
-21.3 -23.6 82 -35 -35 опасность
обморожения
1001.1 1000.2
06 17.02 ЮЗ 11-15
{19}
20 км сильный позёмок 10/3 1500 м
[Sc Ac trans Ci fib]
-20.2 -22.6 81 -34 -34 опасность
обморожения
1001.1 1000.2
09 17.02 ЮЗ 12-15
{19}
20 км сильный позёмок 10/0
[Ac und]
-20.8 -22.2 88 -36 -36 опасность
обморожения
1000.9 1000.0
12 17.02 ЮЗ 6
{16}
10 км снежные кристаллы {метель} 10/0
[Ac As]
-21.2 -22.7 88 -32 -32 опасность
обморожения
1002.1 1001.2 -20.1 0.0
15 17.02 ЮЗ 8-10
{13}
10 км снежные кристаллы {метель} 10/3 1000 м
[Sc Ac As]
-21.2 -22.7 88 -34 -34 опасность
обморожения
1002.9 1002.0
18 17.02 З 9-12
{12}
4000 м слаб. снег {метель} 10/5 1000 м
[Sc Ac As]
-20.6 -21.6 92 -34 -34 опасность
обморожения
1003.5 1002.6
21 17.02 ЮЗ 6
{12}
20 км позёмок {снег} 10/0
[Ac trans Ci sp]
-21.2 -23.5 82 -32 -32 опасность
обморожения
1004.4 1003.5
00 18.02 ЮЗ 6
{11}
20 км позёмок {снег} 10/0
[Ac trans Ci sp]
-21.6 -23.7 83 -33 -33 опасность
обморожения
1005.3 1004.4 -22.6 0.0 3
03 18.02 ЮЗ 8-11
{11}
20 км позёмок 10/0
[Ac trans Ci sp]
-19.3 -21.9 80 -31 -31 опасность
обморожения
1005.0 1004.1
06 18.02 ЮЗ 9-11
{13}
20 км позёмок 10/0
[Ac lent Ci fib]
-19.3 -21.8 81 -32 -32 опасность
обморожения
1005.9 1005.0
09 18.02 ЮЗ 10-13
{13}
20 км сильный позёмок 10/0
[Ac und Ci fib]
-16.9 -20.8 72 -29 -29 тепло 1005.9 1005.0
12 18.02 ЮЗ 11-15
{15}
20 км сильный позёмок 10/0
[Ac lent Ci fib]
-17.0 -20.6 74 -30 -30 по сезону 1006.3 1005.4 -15.8
15 18.02 ЮВ 7-10
{15}
20 км позёмок 8/0
[Ac lent Ci fib]
-17.7 -20.5 79 -29 -29 тепло 1006.7 1005.8
18 18.02 ЮЗ 8-10
{13}
20 км позёмок 5/0
[Ac lent Ci fib]
-17.3 -20.5 76 -29 -29 тепло 1006.7 1005.8
21 18.02 ЮЗ 11-15
{16}
20 км сильный позёмок 10/0
[Ac trans Cs]
-17.4 -21.6 70 -31 -31 опасность
обморожения
1007.5 1006.6
00 19.02 Ю 7-10
{15}
20 км позёмок 10/0
[Ac und]
-18.7 -22.2 74 -30 -30 по сезону 1008.1 1007.2 -20.0 3
03 19.02 Ю 9-12
{14}
20 км позёмок 10/0
[Ac lent Ci fib]
-19.8 -23.3 74 -33 -33 опасность
обморожения
1008.3 1007.4
06 19.02 Ю 7
{14}
20 км позёмок 10/0
[Ac trans Ci fib]
-18.9 -22.4 74 -30 -30 по сезону 1009.5 1008.6

 

Местоположение метеостанции Тикси (Якутия, Россия): широта 71.58 долгота 128.90 высота над уровнем моря 7 м.

В архиве по умолчанию представлена погода в Тикси за последнюю неделю. Архивные данные за месяц целиком и за предыдущие месяцы, начиная с января 2011 года, Вы можете получить, выбрав интересующий диапазон дат из раскрывающегося списка и нажав кнопку "Ввод!".


*Определитесь, кто Вы:
робот инопланетянин человек

Внимание! Время в таблицах - всемирное. Для получения местного времени необходимо прибавить поправку, которая равна 9 ч.

Смотрите также архив погоды в соседних городах и на ближайших метеорологических станциях:

Погода на Мысе Быков (Якутия, Россия) (47 км)
Погода в Кюсюре (Якутия, Россия) (114 км)
Погода на Столб Острове (Якутия, Россия) (128 км)
Погода в Тюмяти (Якутия, Россия) (192 км)
Погода в Юбилейной (Якутия, Россия) (277 км)
Погода в Усть-Куйге (Якутия, Россия) (301 км)
Погода на Усть-Оленеке (Якутия, Россия) (346 км)
Погода в Джарджане (Якутия, Россия) (367 км)
Погода на Мысе Кигилях (Якутия, Россия) (413 км)
Погода в Батагай-Алыте (Якутия, Россия) (427 км)

Пояснения к столбцам:

Ветер - указаны скорость ветра в м/с - средняя за 10 мин, порывы в срок и между сроками (в фигурных скобках) и направление, откуда дует ветер: С - северный, СВ - северо-восточный, В - восточный, ЮВ - юго-восточный, Ю - южный, ЮЗ - юго-западный, З - западный, СЗ - северо-западный.
Видимость - горизонтальная дальность видимости в метрах или километрах. При видимости от 1 до 10 км при отсутствии осадков обычно наблюдается дымка, при ухудшении видимости до 1 км и менее - туман. В сухую погоду видимость может ухудшаться дымом, пылью или мглою.
Явления - указаны атмосферные явления, наблюдавшиеся в срок или в последний час перед сроком; фигурными скобками обозначены явления, наблюдавшиеся между сроками (за 1-3 часа до срока); квадратными скобками обозначены град или гололедные отложения с указанием их диаметра в мм.
Облачность - указаны через наклонную черту общая и нижняя облачность в баллах и высота нижней границы облаков в метрах; квадратными скобками обозначены формы облаков: Ci - перистые, Cs - перисто-слоистые, Cc - перисто-кучевые, Ac - высококучевые, As - высокослоистые, Sc - слоисто-кучевые, Ns - слоисто-дождевые, Cu - кучевые, Cb - кучево-дождевые. Подробнее классификацию облаков см. в Атласе облаков (PDF).
T - Температура воздуха - температура, измеренная на высоте 2 м над землей.
Td - Температура точки росы - температура, при понижении до которой содержащийся в воздухе водяной пар достигнет насыщения.
f - Относительная влажность воздуха - влажноcть воздуха, измеренная на высоте 2 м над землей.
Te - Эффективная температура - температура, которую ощущает одетый по сезону человек в тени. Характеристика душности погоды. При расчете учитывается влияние влажности воздуха и скорости ветра на теплоощущения человека.
Tes - Эффективная температура на солнце - температура, которую ощущает человек, с поправкой на солнечный нагрев. Характеристика знойности погоды. Зависит от высоты солнца над горизонтом, облачности и скорости ветра. Ночью, в пасмурную погоду, а также при ветре 12 м/с и более поправка равна нулю.
P - Атмосферное давление - приведенное к уровню моря атмосферное давление.
Po - Атмосферное давление - измеренное на уровне метеостанции атмосферное давление.
Tmin - Минимальная температура - минимум температуры воздуха на высоте 2 м над землей.
Tmax - Максимальная температура - максимум температуры воздуха на высоте 2 м над землей.
R - Количество осадков - Количество выпавших осадков за период времени, мм. При наведении курсора мыши на число - период времени, за который выпало указанное количество осадков.
R24 - Количество осадков - Количество выпавших осадков за 24 часа, мм.
S - Снежный покров - Высота снежного покрова, см. При наведении курсора мыши на число - состояние снежного покрова и степень покрытия местности в баллах.